Wenn Sie den Mauscursor in der Übersichtskarte über ein Stationssymbol ziehen, so werden die aktuellen Stationsdaten eingeblendet. Neben dem Stationsnamen wird der Zeitpunkt in MEZ eingeblendet, bis zu dem aktuelle Daten verfügbar sind. Zunächst wird die aktuelle Niederschlagsumme für das letzte Messintervall angegeben (15 Minuten). Dadurch wird ersichtlich, ob und in welcher Intensität es regnet. Danach wird die Niederschlagsumme für die vergangenen 24 Stunden angegeben. Der aktuelle Lufttemperaturwert rundet die Information zum Mouse - Over ab.   

Durch Anklicken des entsprechenden Stationssymbols gelangen Sie zu den Gangliniendarstellung der Niederschlagshöhe und der Lufttemperatur. Jeder Parameter ist für einen Zeitraum für 30 Tage dargestellt. 

Wo verfügbar, stellen wir die Niederschlagsverhältnisse des aktuellen Kalenderjahres und des Vorjahres den langjährigen Vergleichsreihen grafisch auf 2 Arten gegenüber.

Eine Grafik wird in Form von Summenlinien erstellt. In dieser wird die Niederschlagssumme für das aktuelle Kalenderjahr und jenes davor ab Jahresbeginn tageweise aufsummiert und so den Vergleichszeitreihen (ebenso als minimale, mittlere und maximale Summenlinien dargestellt) gegenübergestellt.

In einer anderen Grafik vergleichen wir die Niederschlags - Monatssummen des aktuellen Kalenderjahres und des Vorjahres mit den langjährigen Vergleichsreihen. Dabei stellen wir für die Vergleichszeitreihen das langjährige Mittel, das Maximum und das Minimum für jedes Monat dar.

Zudem können Sie die Daten für die letzten 30 Tage downloaden.

Die  Stationssymbole auf der Übersichtskarte werden entsprechend der Niederschlagshöhe in den letzten 24 Stunden vor dem angegebenen Zeitpunkt bei der jeweiligen Station eingefärbt (siehe dazu Legende neben der Übersichtskarte).

Abschließend haben wir für Sie eine Übersichtstabelle unterhalb der Übersichtskarte angefügt. Hier werden die Niederschlagsstationen des Burgenlandes alphabetisch aufgelistet die aktuellen Messwerte dargestellt und es besteht die Möglichkeit der Navigation zu den bereits beschriebenen grafischen Darstellungen.

Stationsname Zeit [MEZ] NS [mm/15min] NS [mm/24h] Temp [°C] Luftfeuchte [%]
Andau 16.05.2022 06:30 0,0 0,0 15,4
Apetlon - A79 16.05.2022 06:30 0,0 0,0 17,1
Aspang 16.05.2022 06:30 0,0 0,0 9,6
Bad Tatzmannsdorf 16.05.2022 06:30 0,0 0,0 15,4
Bernstein 16.05.2022 06:30 0,0 0,0 15,6
Bonisdorf 16.05.2022 06:30 0,0 0,0 15,4
Bruckneudorf 16.05.2022 06:30 0,0 0,0 16,2
Deutsch Jahrndorf 16.05.2022 06:30 0,0 0,0 16,3
Deutsch Kaltenbrunn 16.05.2022 06:30 0,0 1,9 17,1
Deutschkreutz 16.05.2022 06:30 0,0 0,0 15,4
Donnerskirchen 16.05.2022 06:30 0,0 0,0 18,0
Drassburg 16.05.2022 06:30 0,0 0,0 14,3
Dürnbach 16.05.2022 06:30 0,0 0,0 15,0
Eisenstadt 16.05.2022 06:30 0,0 0,0 15,2
Feldbach 16.05.2022 06:30 0,0 0,0 15,5
Fischbach 16.05.2022 06:30 0,0 0,8 14,9
Frankenau 16.05.2022 06:30 0,0 0,0 13,1
Frauenkirchen 16.05.2022 06:30 0,0 0,0 16,7
Fürstenfeld 16.05.2022 06:30 0,0 2,7 15,4
Gattendorf 16.05.2022 06:30 0,0 0,0 16,9
Glasing 16.05.2022 06:30 0,0 0,0 15,6
Gleisdorf 16.05.2022 06:30 0,0 0,0 14,4
Halbturn 16.05.2022 06:30 0,0 0,0 16,3
Heiligenkreuz 16.05.2022 06:30 0,0 0,0 16,4
Hirschenkogel 16.05.2022 06:30 0,0 0,0 14,4
Hirschenstein 16.05.2022 06:30 0,0 0,0 16,6
Illmitz - Biologische Station 16.05.2022 06:30 0,0 0,0 18,4
Karl 16.05.2022 06:30 0,0 0,0 14,3
Kleinzicken 16.05.2022 06:30 0,0 0,0 14,4
Kobersdorf 16.05.2022 06:30 0,0 0,0 11,7
Lutzmannsburg 16.05.2022 06:30 0,0 0,0 13,6
Mattersburg 16.05.2022 06:30 0,0 0,0 12,6
Moenichkirchen 16.05.2022 06:30 0,0 0,0 14,8
Nebersdorf 16.05.2022 06:30 0,0 0,0 15,4
Neumarkt an der Raab 16.05.2022 06:30 0,0 0,2 15,7
Neusiedl am See 16.05.2022 06:30 0,0 0,0 17,0
Neustift an der Rosalia 16.05.2022 06:30 0,0 0,0 15,3
Nickelsdorf 16.05.2022 06:30 0,0 0,0 16,1
Nikitsch 16.05.2022 06:30 0,0 0,0 15,9
Oberpullendorf 16.05.2022 06:30 0,0 0,0 13,6
Oberwart 16.05.2022 06:30 0,0 0,0 16,6
Pinkafeld 16.05.2022 06:30 0,0 0,0 16,4
Pottschach 16.05.2022 06:30 0,0 0,0 14,3
Puchberg 16.05.2022 06:30 0,0 0,0 11,4
Ritzing 16.05.2022 06:30 0,0 0,0 14,6
Rust 16.05.2022 06:30 0,0 0,0 16,9
Seibersdorf 16.05.2022 06:30 0,0 0,0 13,4
Sieggraben 16.05.2022 06:30 0,0 0,0 13,9
St. Margarethen - Berg 16.05.2022 06:30 0,0 0,0 13,9
St. Michael 16.05.2022 06:30 0,0 1,3 16,7
Stadtschlaining 16.05.2022 06:30 0,0 0,0 14,4
Trausdorf 16.05.2022 06:30 0,0 0,0 14,4
Wiener Neustadt 16.05.2022 06:30 0,0 0,0 13,3
Woerterberg 16.05.2022 06:30 0,0 0,0 14,9
Wulkaprodersdorf 16.05.2022 06:30 0,0 0,0 14,7
Zurndorf - Friedrichshof 16.05.2022 06:30 0,0 0,0 17,3